Regional Weather Roundup
Issued by NWS Binghamton, NY

Home | Current Version | Previous Version | Text Only | Print | Product List | Glossary On
Versions: 1 2 3 4 5 6 7 8 9 10 11 12 13 14 15 16 17 18 19 20 21 22 23 24 25 26 27 28 29 30 31 32 33 34 35 36 37 38 39 40 41 42 43 44 45 46 47 48 49 50
000
ASUS41 KBGM 272110
RWRBGM
RWRBGM
BINGHAMTON REGIONAL WEATHER ROUNDUP
NATIONAL WEATHER SERVICE BINGHAMTON NY
500 PM EDT WED AUG 27 2014

Note: "fair" indicates few or no clouds below 12,000 feet with no
significant weather and/or obstructions to visibility.

* = Station(s) that does not report precipitation, such as rain,
snow, etc, also no thunder or fog.

!NYZ009-015>018-022>025-036-037-044>046-055>057-062-272200
...CENTRAL NEW YORK...

CITY           SKY/WX    TMP DP  RH WIND       PRES   REMARKS
BINGHAMTON     CLOUDY    74  66  76 N10       30.00S
CORTLAND       PTSUNNY   75  64  69 N3        30.00F
DANSVILLE      MOSUNNY   80  62  54 NW9       29.99S
ELMIRA         PTSUNNY   81  70  69 NE8       29.96S
ITHACA         MOSUNNY   77  66  68 NW9       29.99F
HAMILTON       PTCLDY    77  64  65 W3        29.98F
MONTICELLO     MOSUNNY   82  68  61 NW8       29.96F HX  85
NORWICH        PTSUNNY   75  64  69 CALM      29.98F
PENN YAN       SUNNY     78  63  59 NW14      29.99S
ROME           MOSUNNY   76  60  57 W14       29.97S
SIDNEY         CLOUDY    77  72  83 CALM      29.98S
SYRACUSE       MOSUNNY   77  62  59 NW15      29.97S
$$

!PAZ038>040-043-044-047-048-072-272200
...NORTHEAST PENNSYLVANIA...

CITY           SKY/WX    TMP DP  RH WIND       PRES   REMARKS
HAZLETON       SUNNY     82  63  51 W7        30.01F
SCRANTON       MOSUNNY   86  67  52 W5        29.93F HX  89
TOWANDA*       SUNNY     82  70  65 E6        29.93F HX  86
$$
&&
KEY
WCI = WIND CHILL INDEX
VSB = VISIBILITY
HX  = HEAT INDEX
$$


USA.gov is the U.S. government's official web portal to all federal, state and local government web resources and services.